EW1556 Weather Reports


Display with metric or nautical units.
time (UTC)temp
F
wind
direction
speed
MPH
gust
MPH
rain 1hr
in
rain 24hr
in
rain mn
in
humidity
%
barometer
mb
20260503204557 80 32 10.0 16.0 0.00 0.00 0.00 27 1010.5
20260503203101 79 34 5.0 12.0 0.00 0.00 0.00 29 1010.6
20260503201552 79 86 6.0 13.0 0.00 0.00 0.00 29 1010.8
20260503200052 78 44 5.0 20.0 0.00 0.00 0.00 31 1011.0
20260503194545 78 59 6.0 12.0 0.00 0.00 0.00 30 1011.2
20260503193047 77 109 0.0 12.0 0.00 0.00 0.00 33 1011.5
20260503191538 77 96 3.0 9.0 0.00 0.00 0.00 36 1011.7
20260503190036 76 119 3.0 10.0 0.00 0.00 0.00 35 1011.9
20260503184532 75 15 5.0 8.0 0.00 0.00 0.00 35 1012.1
20260503183047 74 30 2.0 6.0 0.00 0.00 0.00 38 1012.3
20260503181529 73 38 4.0 10.0 0.00 0.00 0.00 37 1012.3
20260503180027 73 56 3.0 12.0 0.00 0.00 0.00 36 1012.5
20260503174524 73 32 3.0 8.0 0.00 0.00 0.00 37 1012.7
20260503173024 72 62 1.0 7.0 0.00 0.00 0.00 36 1012.8
20260503171520 71 83 4.0 9.0 0.00 0.00 0.00 37 1012.8
20260503081629 54 323 2.0 3.0 0.00 0.06 0.00 66 1012.0
20260503080112 54 304 1.0 2.0 0.00 0.06 0.00 67 1011.9
20260503071550 56 316 0.0 2.0 0.00 0.06 0.00 65 1012.2
20260503054551 61 302 2.0 4.0 0.00 0.06 0.06 57 1011.8
20260503053043 62 291 1.0 4.0 0.00 0.06 0.06 55 1011.8
20260503051543 62 283 2.0 4.0 0.00 0.06 0.06 54 1011.7
20260503050042 64 278 0.0 2.0 0.00 0.06 0.06 52 1011.7
20260503044543 65 115 0.0 0.0 0.00 0.06 0.06 48 1011.7
20260503043043 67 180 2.0 6.0 0.00 0.06 0.06 46 1011.7
20260503041546 68 354 6.0 9.0 0.00 0.06 0.06 44 1011.3
20260503040046 68 321 4.0 7.0 0.00 0.06 0.06 44 1011.2
20260503034546 69 339 2.0 3.0 0.00 0.06 0.06 40 1011.2
20260503033053 71 248 0.0 5.0 0.00 0.06 0.06 34 1011.6
20260503031550 70 228 3.0 9.0 0.00 0.06 0.06 39 1011.6
20260503030036 70 241 7.0 12.0 0.00 0.06 0.06 40 1011.7
20260503024536 71 256 9.0 14.0 0.00 0.06 0.06 39 1011.6
20260503023035 71 203 3.0 6.0 0.00 0.06 0.06 39 1011.5
20260503021534 72 34 0.0 0.0 0.00 0.06 0.06 48 1010.9
20260503020034 73 34 0.0 1.0 0.00 0.06 0.06 39 1010.5
20260503014540 74 34 0.0 5.0 0.00 0.06 0.06 36 1010.3
20260503013034 75 44 3.0 7.0 0.00 0.06 0.06 34 1010.2
20260503011540 75 60 6.0 8.0 0.00 0.06 0.06 31 1010.2
20260503010032 75 54 5.0 9.0 0.00 0.42 0.06 31 1010.2
20260503004532 76 70 4.0 9.0 0.00 0.42 0.06 31 1010.1
20260503003031 76 82 3.0 10.0 0.00 0.42 0.06 30 1010.0
20260503001530 76 64 7.0 10.0 0.00 0.42 0.06 29 1010.0
20260503000029 77 65 6.0 12.0 0.00 1.12 0.06 30 1010.0
20260502234528 77 59 8.0 12.0 0.00 1.12 0.06 26 1010.1
20260502233030 77 72 7.0 13.0 0.00 1.12 0.06 31 1010.2
20260502231524 77 63 7.0 16.0 0.00 1.12 0.06 31 1010.3
20260502230023 77 62 8.0 17.0 0.00 1.15 0.06 32 1010.4
20260502224520 77 80 9.0 15.0 0.00 1.15 0.06 32 1010.6
20260502223020 78 20 9.0 16.0 0.00 1.15 0.06 30 1010.7
20260502221618 77 33 9.0 18.0 0.00 1.15 0.06 31 1010.8
20260502220016 77 44 9.0 17.0 0.00 1.81 0.06 33 1011.0
20260502214511 77 60 8.0 14.0 0.00 1.81 0.06 30 1011.1
20260502213009 77 55 8.0 14.0 0.00 1.81 0.06 31 1011.3
20260502211518 77 53 8.0 13.0 0.00 1.81 0.06 32 1011.5
20260502210006 76 113 4.0 9.0 0.00 1.81 0.06 34 1011.7